Time,TemperatureF,DewpointF,PressureIn,WindDirection,WindDirectionDegrees,WindSpeedMPH,WindSpeedGustMPH,Humidity,HourlyPrecipIn,Conditions,Clouds,dailyrainin,SoftwareType,DateUTC
2013-09-11 00:01:00,67.6,66.4,30.10,East,101,0.0,0.0,96,0.00,,,0.00,PWS Weather Center,2013-09-11 04:01:00,
2013-09-11 00:02:00,67.6,66.4,30.09,ENE,66,0.0,0.0,96,0.00,,,0.00,PWS Weather Center,2013-09-11 04:02:00,
2013-09-11 00:07:00,67.6,66.4,30.10,East,99,0.0,0.0,96,0.00,,,0.00,PWS Weather Center,2013-09-11 04:07:00,
2013-09-11 00:09:00,67.6,66.4,30.10,East,95,0.0,0.0,96,0.00,,,0.00,PWS Weather Center,2013-09-11 04:09:00,
2013-09-11 00:13:00,67.6,66.4,30.10,East,99,0.0,0.0,96,0.00,,,0.00,PWS Weather Center,2013-09-11 04:13:00,
2013-09-11 00:16:00,67.6,66.4,30.10,East,101,0.0,0.0,96,0.00,,,0.00,PWS Weather Center,2013-09-11 04:16:00,
2013-09-11 00:21:00,67.6,66.4,30.10,ESE,102,0.0,0.0,96,0.00,,,0.00,PWS Weather Center,2013-09-11 04:21:00,
2013-09-11 00:26:00,67.5,66.3,30.09,East,99,0.0,0.0,96,0.00,,,0.00,PWS Weather Center,2013-09-11 04:26:00,
2013-09-11 00:31:00,67.6,66.4,30.10,East,97,0.0,0.0,96,0.00,,,0.00,PWS Weather Center,2013-09-11 04:31:00,
2013-09-11 00:36:00,67.7,66.5,30.09,East,101,0.0,0.0,96,0.00,,,0.00,PWS Weather Center,2013-09-11 04:36:00,
2013-09-11 00:41:00,67.7,66.5,30.09,East,99,0.0,0.0,96,0.00,,,0.00,PWS Weather Center,2013-09-11 04:41:00,
2013-09-11 00:46:00,67.7,66.5,30.09,East,99,0.0,0.0,96,0.00,,,0.00,PWS Weather Center,2013-09-11 04:46:00,
2013-09-11 00:51:00,67.9,66.7,30.09,East,97,0.0,0.0,96,0.00,,,0.00,PWS Weather Center,2013-09-11 04:51:00,
2013-09-11 00:56:00,67.7,66.5,30.09,East,95,0.0,0.0,96,0.00,,,0.00,PWS Weather Center,2013-09-11 04:56:00,
2013-09-11 01:01:00,67.9,66.7,30.09,East,99,0.0,0.0,96,0.00,,,0.00,PWS Weather Center,2013-09-11 05:01:00,
2013-09-11 01:06:00,68.4,67.2,30.09,East,97,0.0,0.0,96,0.00,,,0.00,PWS Weather Center,2013-09-11 05:06:00,
2013-09-11 01:11:00,68.7,67.5,30.09,SW,236,0.0,4.0,96,0.00,,,0.00,PWS Weather Center,2013-09-11 05:11:00,
2013-09-11 01:16:00,69.4,68.2,30.09,SSE,167,0.0,5.0,96,0.00,,,0.00,PWS Weather Center,2013-09-11 05:16:00,
2013-09-11 01:21:00,69.9,69.0,30.09,South,173,0.0,1.0,97,0.00,,,0.00,PWS Weather Center,2013-09-11 05:21:00,
2013-09-11 01:26:00,70.3,69.4,30.09,South,173,0.0,0.0,97,0.00,,,0.00,PWS Weather Center,2013-09-11 05:26:00,
2013-09-11 01:31:00,70.6,69.7,30.09,South,181,0.0,0.0,97,0.00,,,0.00,PWS Weather Center,2013-09-11 05:31:00,
2013-09-11 01:36:00,70.7,69.8,30.09,South,171,0.0,0.0,97,0.00,,,0.00,PWS Weather Center,2013-09-11 05:36:00,
2013-09-11 01:41:00,70.7,69.8,30.08,North,360,0.0,3.0,97,0.00,,,0.00,PWS Weather Center,2013-09-11 05:41:00,
2013-09-11 01:46:00,70.8,69.9,30.08,North,5,0.0,2.0,97,0.00,,,0.00,PWS Weather Center,2013-09-11 05:46:00,
2013-09-11 01:51:00,70.7,69.8,30.08,North,360,0.0,1.0,97,0.00,,,0.00,PWS Weather Center,2013-09-11 05:51:00,
2013-09-11 01:56:00,70.8,69.9,30.08,SSW,209,0.0,6.0,97,0.00,,,0.00,PWS Weather Center,2013-09-11 05:56:00,
2013-09-11 02:01:00,70.9,70.0,30.08,SSW,207,0.0,0.0,97,0.00,,,0.00,PWS Weather Center,2013-09-11 06:01:00,
2013-09-11 02:06:00,71.0,70.1,30.08,South,175,0.0,0.0,97,0.00,,,0.00,PWS Weather Center,2013-09-11 06:06:00,
2013-09-11 02:11:00,71.0,70.1,30.08,South,169,0.0,1.0,97,0.00,,,0.00,PWS Weather Center,2013-09-11 06:11:00,
2013-09-11 02:16:00,71.0,70.1,30.08,North,360,0.0,1.0,97,0.00,,,0.00,PWS Weather Center,2013-09-11 06:16:00,
2013-09-11 02:21:00,71.1,70.2,30.08,South,181,0.0,0.0,97,0.00,,,0.00,PWS Weather Center,2013-09-11 06:21:00,
2013-09-11 02:26:00,71.1,70.2,30.08,SE,146,0.0,0.0,97,0.00,,,0.00,PWS Weather Center,2013-09-11 06:26:00,
2013-09-11 02:31:00,71.0,70.1,30.08,South,178,0.0,5.0,97,0.00,,,0.00,PWS Weather Center,2013-09-11 06:31:00,
2013-09-11 02:36:00,71.1,70.2,30.08,South,169,0.0,0.0,97,0.00,,,0.00,PWS Weather Center,2013-09-11 06:36:00,
2013-09-11 02:41:00,71.1,70.2,30.08,SSE,160,0.0,1.0,97,0.00,,,0.00,PWS Weather Center,2013-09-11 06:41:00,
2013-09-11 02:46:00,71.1,70.2,30.07,SE,145,1.0,1.0,97,0.00,,,0.00,PWS Weather Center,2013-09-11 06:46:00,
2013-09-11 02:51:00,71.1,69.9,30.07,SSE,156,0.0,0.0,96,0.00,,,0.00,PWS Weather Center,2013-09-11 06:51:00,
2013-09-11 02:56:00,71.1,69.9,30.07,SSE,153,0.0,0.0,96,0.00,,,0.00,PWS Weather Center,2013-09-11 06:56:00,
2013-09-11 03:01:00,71.1,69.9,30.07,SSE,156,0.0,0.0,96,0.00,,,0.00,PWS Weather Center,2013-09-11 07:01:00,
2013-09-11 03:06:00,71.1,69.9,30.07,SSE,157,0.0,0.0,96,0.00,,,0.00,PWS Weather Center,2013-09-11 07:06:00,
2013-09-11 03:11:00,71.1,69.9,30.08,SSE,163,0.0,4.0,96,0.00,,,0.00,PWS Weather Center,2013-09-11 07:11:00,
2013-09-11 03:16:00,71.0,69.8,30.07,SSE,165,0.0,0.0,96,0.00,,,0.00,PWS Weather Center,2013-09-11 07:16:00,
2013-09-11 03:21:00,70.9,69.7,30.07,SSE,157,0.0,0.0,96,0.00,,,0.00,PWS Weather Center,2013-09-11 07:21:00,
2013-09-11 03:26:00,70.9,69.7,30.07,SSE,165,0.0,0.0,96,0.00,,,0.00,PWS Weather Center,2013-09-11 07:26:00,
2013-09-11 03:31:00,71.0,69.8,30.07,SSE,155,0.0,3.0,96,0.00,,,0.00,PWS Weather Center,2013-09-11 07:31:00,
2013-09-11 03:36:00,71.1,69.9,30.07,SSE,156,0.0,1.0,96,0.00,,,0.00,PWS Weather Center,2013-09-11 07:36:00,
2013-09-11 03:41:00,71.2,70.0,30.07,SSE,155,0.0,0.0,96,0.00,,,0.00,PWS Weather Center,2013-09-11 07:41:00,
2013-09-11 03:46:00,71.1,69.9,30.07,SSE,163,0.0,4.0,96,0.00,,,0.00,PWS Weather Center,2013-09-11 07:46:00,
2013-09-11 03:51:00,71.0,69.8,30.07,SSE,153,0.0,0.0,96,0.00,,,0.00,PWS Weather Center,2013-09-11 07:51:00,
2013-09-11 03:56:00,71.0,69.8,30.07,SSE,152,0.0,0.0,96,0.00,,,0.00,PWS Weather Center,2013-09-11 07:56:00,
2013-09-11 04:01:00,71.0,69.8,30.07,East,96,0.0,0.0,96,0.00,,,0.00,PWS Weather Center,2013-09-11 08:01:00,
2013-09-11 04:06:00,70.9,69.7,30.07,SSE,157,0.0,0.0,96,0.00,,,0.00,PWS Weather Center,2013-09-11 08:06:00,
2013-09-11 04:11:00,70.9,69.7,30.07,SSE,153,0.0,0.0,96,0.00,,,0.00,PWS Weather Center,2013-09-11 08:11:00,
2013-09-11 04:16:00,71.0,69.8,30.07,East,98,0.0,5.0,96,0.00,,,0.00,PWS Weather Center,2013-09-11 08:16:00,
2013-09-11 04:21:00,71.0,69.8,30.07,SSE,153,0.0,0.0,96,0.00,,,0.00,PWS Weather Center,2013-09-11 08:21:00,
2013-09-11 04:26:00,71.0,69.8,30.07,SSE,157,0.0,0.0,96,0.00,,,0.00,PWS Weather Center,2013-09-11 08:26:00,
2013-09-11 04:31:00,71.0,69.8,30.07,ESE,110,0.0,0.0,96,0.00,,,0.00,PWS Weather Center,2013-09-11 08:31:00,
2013-09-11 04:36:00,70.9,69.7,30.07,SSE,155,0.0,0.0,96,0.00,,,0.00,PWS Weather Center,2013-09-11 08:36:00,
2013-09-11 04:41:00,70.9,69.7,30.07,SSE,153,0.0,0.0,96,0.00,,,0.00,PWS Weather Center,2013-09-11 08:41:00,
2013-09-11 04:46:00,70.7,69.5,30.07,SSE,150,0.0,0.0,96,0.00,,,0.00,PWS Weather Center,2013-09-11 08:46:00,
2013-09-11 04:51:00,70.1,68.6,30.07,SSE,150,0.0,0.0,95,0.00,,,0.00,PWS Weather Center,2013-09-11 08:51:00,
2013-09-11 04:56:00,69.9,68.7,30.07,SSE,155,0.0,0.0,96,0.00,,,0.00,PWS Weather Center,2013-09-11 08:56:00,
2013-09-11 05:01:00,69.7,68.5,30.07,SSE,153,0.0,0.0,96,0.00,,,0.00,PWS Weather Center,2013-09-11 09:01:00,
2013-09-11 05:06:00,69.6,68.4,30.07,SE,146,0.0,0.0,96,0.00,,,0.00,PWS Weather Center,2013-09-11 09:06:00,
2013-09-11 05:11:00,69.8,68.6,30.07,SSE,157,0.0,0.0,96,0.00,,,0.00,PWS Weather Center,2013-09-11 09:11:00,
2013-09-11 05:16:00,69.9,68.7,30.07,SSE,153,0.0,0.0,96,0.00,,,0.00,PWS Weather Center,2013-09-11 09:16:00,
2013-09-11 05:21:00,70.2,69.0,30.07,ESE,110,0.0,0.0,96,0.00,,,0.00,PWS Weather Center,2013-09-11 09:21:00,
2013-09-11 05:26:00,70.1,68.9,30.07,East,98,0.0,0.0,96,0.00,,,0.00,PWS Weather Center,2013-09-11 09:26:00,
2013-09-11 05:31:00,69.5,68.3,30.07,SE,128,0.0,0.0,96,0.00,,,0.00,PWS Weather Center,2013-09-11 09:31:00,
2013-09-11 05:36:00,68.9,67.7,30.07,SE,128,0.0,0.0,96,0.00,,,0.00,PWS Weather Center,2013-09-11 09:36:00,
2013-09-11 05:41:00,68.5,67.0,30.07,ESE,109,0.0,0.0,95,0.00,,,0.00,PWS Weather Center,2013-09-11 09:41:00,
2013-09-11 05:46:00,68.3,67.1,30.07,North,360,0.0,0.0,96,0.00,,,0.00,PWS Weather Center,2013-09-11 09:46:00,
2013-09-11 05:51:00,68.4,67.2,30.07,SSE,155,0.0,0.0,96,0.00,,,0.00,PWS Weather Center,2013-09-11 09:51:00,
2013-09-11 05:56:00,68.3,67.1,30.07,ESE,110,0.0,0.0,96,0.00,,,0.00,PWS Weather Center,2013-09-11 09:56:00,
2013-09-11 06:01:00,68.5,67.3,30.08,East,98,0.0,0.0,96,0.00,,,0.00,PWS Weather Center,2013-09-11 10:01:00,
2013-09-11 06:06:00,68.4,67.2,30.08,SSE,151,0.0,0.0,96,0.00,,,0.00,PWS Weather Center,2013-09-11 10:06:00,
2013-09-11 06:11:00,68.2,67.0,30.08,SSE,155,0.0,0.0,96,0.00,,,0.00,PWS Weather Center,2013-09-11 10:11:00,
2013-09-11 06:16:00,68.1,66.9,30.08,East,98,0.0,0.0,96,0.00,,,0.00,PWS Weather Center,2013-09-11 10:16:00,
2013-09-11 06:21:00,67.9,66.7,30.08,SSE,155,0.0,0.0,96,0.00,,,0.00,PWS Weather Center,2013-09-11 10:21:00,
2013-09-11 06:26:00,67.9,66.7,30.08,SSE,155,0.0,0.0,96,0.00,,,0.00,PWS Weather Center,2013-09-11 10:26:00,
2013-09-11 06:31:00,68.0,66.8,30.08,ESE,110,0.0,0.0,96,0.00,,,0.00,PWS Weather Center,2013-09-11 10:31:00,
2013-09-11 06:36:00,68.0,66.8,30.08,ESE,111,0.0,0.0,96,0.00,,,0.00,PWS Weather Center,2013-09-11 10:36:00,
2013-09-11 06:41:00,68.1,66.9,30.09,SSE,155,0.0,0.0,96,0.00,,,0.00,PWS Weather Center,2013-09-11 10:41:00,
2013-09-11 06:46:00,68.0,66.8,30.09,SSE,149,0.0,0.0,96,0.00,,,0.00,PWS Weather Center,2013-09-11 10:46:00,
2013-09-11 06:51:00,67.7,66.5,30.09,SE,146,0.0,0.0,96,0.00,,,0.00,PWS Weather Center,2013-09-11 10:51:00,
2013-09-11 06:56:00,67.5,66.3,30.09,SSE,157,0.0,0.0,96,0.00,,,0.00,PWS Weather Center,2013-09-11 10:56:00,
2013-09-11 07:01:00,67.5,66.3,30.09,SSE,153,0.0,0.0,96,0.00,,,0.00,PWS Weather Center,2013-09-11 11:01:00,
2013-09-11 07:06:00,67.6,66.4,30.09,SSE,147,0.0,0.0,96,0.00,,,0.00,PWS Weather Center,2013-09-11 11:06:00,
2013-09-11 07:11:00,67.7,66.5,30.09,SSE,157,0.0,0.0,96,0.00,,,0.00,PWS Weather Center,2013-09-11 11:11:00,
2013-09-11 07:16:00,68.1,66.9,30.09,SSE,153,0.0,0.0,96,0.00,,,0.00,PWS Weather Center,2013-09-11 11:16:00,
2013-09-11 07:21:00,68.4,67.2,30.09,SSE,153,0.0,0.0,96,0.00,,,0.00,PWS Weather Center,2013-09-11 11:21:00,
2013-09-11 07:26:00,68.5,67.3,30.09,SE,146,0.0,0.0,96,0.00,,,0.00,PWS Weather Center,2013-09-11 11:26:00,
2013-09-11 07:31:00,68.5,67.3,30.09,SSE,157,0.0,0.0,96,0.00,,,0.00,PWS Weather Center,2013-09-11 11:31:00,
2013-09-11 07:36:00,68.7,67.5,30.09,SSE,153,0.0,0.0,96,0.00,,,0.00,PWS Weather Center,2013-09-11 11:36:00,
2013-09-11 07:41:00,69.0,68.1,30.09,SSE,150,0.0,0.0,97,0.00,,,0.00,PWS Weather Center,2013-09-11 11:41:00,
2013-09-11 07:46:00,69.4,68.2,30.09,SSE,147,0.0,0.0,96,0.00,,,0.00,PWS Weather Center,2013-09-11 11:46:00,
2013-09-11 07:51:00,69.5,68.3,30.09,SSE,153,0.0,0.0,96,0.00,,,0.00,PWS Weather Center,2013-09-11 11:51:00,
2013-09-11 07:56:00,69.8,68.9,30.09,SSE,149,0.0,1.0,97,0.00,,,0.00,PWS Weather Center,2013-09-11 11:56:00,
2013-09-11 08:01:00,69.8,68.9,30.09,SSE,157,0.0,0.0,97,0.00,,,0.00,PWS Weather Center,2013-09-11 12:01:00,
2013-09-11 08:06:00,70.4,69.5,30.10,SSE,157,0.0,0.0,97,0.00,,,0.00,PWS Weather Center,2013-09-11 12:06:00,
2013-09-11 08:11:00,70.8,69.6,30.10,SSE,149,0.0,0.0,96,0.00,,,0.00,PWS Weather Center,2013-09-11 12:11:00,
2013-09-11 08:16:00,71.1,70.2,30.10,SSE,149,0.0,0.0,97,0.00,,,0.00,PWS Weather Center,2013-09-11 12:16:00,
2013-09-11 08:21:00,71.3,70.1,30.10,SSE,157,0.0,0.0,96,0.00,,,0.00,PWS Weather Center,2013-09-11 12:21:00,
2013-09-11 08:26:00,72.0,70.8,30.10,SSE,153,0.0,0.0,96,0.00,,,0.00,PWS Weather Center,2013-09-11 12:26:00,
2013-09-11 08:31:00,72.5,71.3,30.10,SSE,155,0.0,1.0,96,0.00,,,0.00,PWS Weather Center,2013-09-11 12:31:00,
2013-09-11 08:36:00,72.4,71.2,30.10,SE,144,0.0,0.0,96,0.00,,,0.00,PWS Weather Center,2013-09-11 12:36:00,
2013-09-11 08:41:00,72.1,70.6,30.10,SSE,157,0.0,1.0,95,0.00,,,0.00,PWS Weather Center,2013-09-11 12:41:00,
2013-09-11 08:46:00,72.2,70.7,30.10,SE,142,1.0,3.0,95,0.00,,,0.00,PWS Weather Center,2013-09-11 12:46:00,
2013-09-11 08:51:00,72.2,70.7,30.10,SE,145,0.0,2.0,95,0.00,,,0.00,PWS Weather Center,2013-09-11 12:51:00,
2013-09-11 08:56:00,72.5,71.0,30.10,SSE,150,1.0,1.0,95,0.00,,,0.00,PWS Weather Center,2013-09-11 12:56:00,
2013-09-11 09:01:00,72.9,71.4,30.10,SE,141,1.0,2.0,95,0.00,,,0.00,PWS Weather Center,2013-09-11 13:01:00,
2013-09-11 09:06:00,73.3,71.5,30.10,ENE,69,0.0,1.0,94,0.00,,,0.00,PWS Weather Center,2013-09-11 13:06:00,
2013-09-11 09:11:00,74.1,72.3,30.10,East,90,0.0,0.0,94,0.00,,,0.00,PWS Weather Center,2013-09-11 13:11:00,
2013-09-11 09:16:00,75.0,72.8,30.10,East,98,0.0,1.0,93,0.00,,,0.00,PWS Weather Center,2013-09-11 13:16:00,
2013-09-11 09:21:00,75.7,73.2,30.10,NE,55,2.0,2.0,92,0.01,,,0.01,PWS Weather Center,2013-09-11 13:21:00,
2013-09-11 09:26:00,75.6,72.8,30.10,East,98,0.0,3.0,91,0.01,,,0.01,PWS Weather Center,2013-09-11 13:26:00,
2013-09-11 09:31:00,75.9,73.1,30.10,East,98,0.0,2.0,91,0.02,,,0.02,PWS Weather Center,2013-09-11 13:31:00,
2013-09-11 09:36:00,76.0,72.9,30.10,East,96,0.0,1.0,90,0.03,,,0.03,PWS Weather Center,2013-09-11 13:36:00,
2013-09-11 09:41:00,76.3,73.2,30.10,East,88,1.0,2.0,90,0.04,,,0.04,PWS Weather Center,2013-09-11 13:41:00,
2013-09-11 09:46:00,76.5,73.7,30.10,East,84,2.0,4.0,91,0.04,,,0.04,PWS Weather Center,2013-09-11 13:46:00,
2013-09-11 09:51:00,77.2,74.4,30.10,East,84,0.0,4.0,91,0.04,,,0.04,PWS Weather Center,2013-09-11 13:51:00,
2013-09-11 09:56:00,78.0,74.8,30.10,East,80,1.0,1.0,90,0.04,,,0.04,PWS Weather Center,2013-09-11 13:56:00,
2013-09-11 10:01:00,78.8,74.9,30.10,East,88,0.0,1.0,88,0.07,,,0.07,PWS Weather Center,2013-09-11 14:01:00,
2013-09-11 10:06:00,79.7,75.1,30.10,ENE,72,0.0,0.0,86,0.11,,,0.11,PWS Weather Center,2013-09-11 14:06:00,
2013-09-11 10:11:00,80.0,75.1,30.10,ENE,69,0.0,0.0,85,0.12,,,0.12,PWS Weather Center,2013-09-11 14:11:00,
2013-09-11 10:16:00,80.5,75.6,30.10,ENE,73,0.0,0.0,85,0.13,,,0.13,PWS Weather Center,2013-09-11 14:16:00,
2013-09-11 10:21:00,80.7,75.8,30.10,ENE,73,4.0,4.0,85,0.12,,,0.13,PWS Weather Center,2013-09-11 14:21:00,
2013-09-11 10:26:00,81.1,76.2,30.10,ENE,69,0.0,0.0,85,0.12,,,0.13,PWS Weather Center,2013-09-11 14:26:00,
2013-09-11 10:31:00,81.5,75.8,30.10,ENE,59,0.0,2.0,83,0.11,,,0.13,PWS Weather Center,2013-09-11 14:31:00,
2013-09-11 10:36:00,81.9,77.0,30.10,ENE,73,3.0,3.0,85,0.10,,,0.13,PWS Weather Center,2013-09-11 14:36:00,
2013-09-11 10:41:00,82.7,77.0,30.10,ENE,68,2.0,2.0,83,0.10,,,0.14,PWS Weather Center,2013-09-11 14:41:00,
2013-09-11 10:46:00,83.0,77.7,30.10,ENE,71,0.0,0.0,84,0.10,,,0.14,PWS Weather Center,2013-09-11 14:46:00,
2013-09-11 10:51:00,83.9,78.2,30.09,ENE,71,0.0,1.0,83,0.10,,,0.14,PWS Weather Center,2013-09-11 14:51:00,
2013-09-11 10:56:00,84.7,78.2,30.09,ENE,60,0.0,1.0,81,0.11,,,0.15,PWS Weather Center,2013-09-11 14:56:00,
2013-09-11 11:01:00,84.9,78.0,30.09,ENE,67,0.0,0.0,80,0.08,,,0.15,PWS Weather Center,2013-09-11 15:01:00,
2013-09-11 11:06:00,85.4,78.5,30.09,ENE,73,0.0,3.0,80,0.04,,,0.15,PWS Weather Center,2013-09-11 15:06:00,
2013-09-11 11:12:00,85.5,78.2,30.09,NE,46,0.0,1.0,79,0.03,,,0.15,PWS Weather Center,2013-09-11 15:12:00,
2013-09-11 11:17:00,85.8,78.1,30.08,ENE,68,0.0,0.0,78,0.03,,,0.16,PWS Weather Center,2013-09-11 15:17:00,
2013-09-11 11:22:00,85.9,78.2,30.08,ENE,67,0.0,3.0,78,0.03,,,0.16,PWS Weather Center,2013-09-11 15:22:00,
2013-09-11 11:27:00,86.3,78.2,30.08,ENE,74,1.0,1.0,77,0.03,,,0.16,PWS Weather Center,2013-09-11 15:27:00,
2013-09-11 11:32:00,86.4,77.9,30.08,ENE,60,0.0,3.0,76,0.03,,,0.16,PWS Weather Center,2013-09-11 15:32:00,
2013-09-11 11:38:00,86.8,78.7,30.08,ENE,69,0.0,0.0,77,0.03,,,0.16,PWS Weather Center,2013-09-11 15:38:00,
2013-09-11 11:43:00,86.8,78.3,30.08,ENE,66,0.0,1.0,76,0.02,,,0.16,PWS Weather Center,2013-09-11 15:43:00,
2013-09-11 11:48:00,86.8,79.1,30.08,ENE,71,0.0,1.0,78,0.02,,,0.16,PWS Weather Center,2013-09-11 15:48:00,
2013-09-11 11:53:00,87.2,79.5,30.08,ENE,71,0.0,1.0,78,0.02,,,0.16,PWS Weather Center,2013-09-11 15:53:00,
2013-09-11 11:58:00,87.7,78.8,30.08,ENE,65,0.0,2.0,75,0.01,,,0.16,PWS Weather Center,2013-09-11 15:58:00,
2013-09-11 12:03:00,87.7,79.6,30.07,ENE,71,1.0,1.0,77,0.01,,,0.16,PWS Weather Center,2013-09-11 16:03:00,
2013-09-11 12:08:00,87.7,78.0,30.07,ENE,72,0.0,4.0,73,0.01,,,0.16,PWS Weather Center,2013-09-11 16:08:00,
2013-09-11 12:13:00,87.3,79.2,30.07,ENE,67,1.0,1.0,77,0.01,,,0.16,PWS Weather Center,2013-09-11 16:13:00,
2013-09-11 12:18:00,87.5,78.6,30.07,ENE,71,1.0,1.0,75,0.00,,,0.16,PWS Weather Center,2013-09-11 16:18:00,
2013-09-11 12:23:00,87.9,76.9,30.07,NE,49,1.0,2.0,70,0.00,,,0.16,PWS Weather Center,2013-09-11 16:23:00,
2013-09-11 12:28:00,87.9,76.5,30.07,SW,233,0.0,1.0,69,0.00,,,0.16,PWS Weather Center,2013-09-11 16:28:00,
2013-09-11 12:33:00,88.3,78.6,30.06,SW,227,0.0,0.0,73,0.00,,,0.16,PWS Weather Center,2013-09-11 16:33:00,
2013-09-11 12:38:00,89.1,76.7,30.06,SSE,165,1.0,2.0,67,0.00,,,0.16,PWS Weather Center,2013-09-11 16:38:00,
2013-09-11 12:43:00,88.9,78.7,30.06,SSE,163,0.0,0.0,72,0.00,,,0.16,PWS Weather Center,2013-09-11 16:43:00,
2013-09-11 12:48:00,89.2,78.6,30.06,SSE,157,0.0,0.0,71,0.00,,,0.16,PWS Weather Center,2013-09-11 16:48:00,
2013-09-11 12:53:00,89.3,77.4,30.06,SSE,154,0.0,1.0,68,0.00,,,0.16,PWS Weather Center,2013-09-11 16:53:00,
2013-09-11 12:58:00,89.5,77.1,30.06,ESE,106,1.0,1.0,67,0.00,,,0.16,PWS Weather Center,2013-09-11 16:58:00,
2013-09-11 13:03:00,89.4,78.3,30.06,NE,55,0.0,1.0,70,0.00,,,0.16,PWS Weather Center,2013-09-11 17:03:00,
2013-09-11 13:08:00,89.4,77.0,30.06,ENE,62,0.0,2.0,67,0.00,,,0.16,PWS Weather Center,2013-09-11 17:08:00,
2013-09-11 13:13:00,89.7,76.8,30.05,ENE,71,2.0,4.0,66,0.00,,,0.16,PWS Weather Center,2013-09-11 17:13:00,
2013-09-11 13:18:00,89.6,75.8,30.05,SSW,194,0.0,5.0,64,0.00,,,0.16,PWS Weather Center,2013-09-11 17:18:00,
2013-09-11 13:23:00,89.6,76.7,30.05,SW,215,0.0,0.0,66,0.00,,,0.16,PWS Weather Center,2013-09-11 17:23:00,
2013-09-11 13:28:00,90.1,76.3,30.05,SSW,196,0.0,1.0,64,0.00,,,0.16,PWS Weather Center,2013-09-11 17:28:00,
2013-09-11 13:33:00,90.5,76.7,30.04,SW,219,0.0,0.0,64,0.00,,,0.16,PWS Weather Center,2013-09-11 17:33:00,
2013-09-11 13:38:00,90.9,76.1,30.04,SSE,153,0.0,0.0,62,0.00,,,0.16,PWS Weather Center,2013-09-11 17:38:00,
2013-09-11 13:43:00,91.2,75.9,30.04,SW,219,0.0,1.0,61,0.00,,,0.16,PWS Weather Center,2013-09-11 17:43:00,
2013-09-11 13:48:00,91.1,76.8,30.04,SW,219,0.0,1.0,63,0.00,,,0.16,PWS Weather Center,2013-09-11 17:48:00,
2013-09-11 13:53:00,91.0,76.2,30.04,SSW,194,0.0,1.0,62,0.00,,,0.16,PWS Weather Center,2013-09-11 17:53:00,
2013-09-11 13:58:00,90.9,76.1,30.04,South,191,0.0,1.0,62,0.00,,,0.16,PWS Weather Center,2013-09-11 17:58:00,
2013-09-11 14:03:00,90.9,75.1,30.04,South,184,1.0,3.0,60,0.00,,,0.16,PWS Weather Center,2013-09-11 18:03:00,
2013-09-11 14:08:00,90.5,74.7,30.04,ENE,68,0.0,5.0,60,0.00,,,0.16,PWS Weather Center,2013-09-11 18:08:00,
2013-09-11 14:13:00,90.5,74.7,30.04,East,81,0.0,0.0,60,0.00,,,0.16,PWS Weather Center,2013-09-11 18:13:00,
2013-09-11 14:18:00,90.8,76.0,30.03,East,96,0.0,3.0,62,0.00,,,0.16,PWS Weather Center,2013-09-11 18:18:00,
2013-09-11 14:23:00,90.6,75.8,30.03,South,191,1.0,9.0,62,0.00,,,0.16,PWS Weather Center,2013-09-11 18:23:00,
2013-09-11 14:28:00,90.7,75.9,30.03,South,177,1.0,8.0,62,0.00,,,0.16,PWS Weather Center,2013-09-11 18:28:00,
2013-09-11 14:33:00,91.1,77.2,30.02,SSW,204,0.0,1.0,64,0.00,,,0.16,PWS Weather Center,2013-09-11 18:33:00,
2013-09-11 14:38:00,91.1,74.8,30.02,SSW,210,0.0,1.0,59,0.00,,,0.16,PWS Weather Center,2013-09-11 18:38:00,
2013-09-11 14:44:00,91.7,75.9,30.02,East,92,0.0,2.0,60,0.00,,,0.16,PWS Weather Center,2013-09-11 18:44:00,
2013-09-11 14:49:00,91.7,76.8,30.02,East,89,0.0,2.0,62,0.00,,,0.16,PWS Weather Center,2013-09-11 18:49:00,
2013-09-11 14:54:00,92.2,75.8,30.02,SSE,147,0.0,1.0,59,0.00,,,0.16,PWS Weather Center,2013-09-11 18:54:00,
2013-09-11 14:59:00,92.1,75.2,30.02,SSE,155,0.0,7.0,58,0.00,,,0.16,PWS Weather Center,2013-09-11 18:59:00,
2013-09-11 15:04:00,91.6,75.8,30.02,ESE,120,0.0,4.0,60,0.00,,,0.16,PWS Weather Center,2013-09-11 19:04:00,
2013-09-11 15:09:00,91.4,76.1,30.02,ESE,105,0.0,1.0,61,0.00,,,0.16,PWS Weather Center,2013-09-11 19:09:00,
2013-09-11 15:14:00,91.4,77.0,30.01,SSE,163,0.0,1.0,63,0.00,,,0.16,PWS Weather Center,2013-09-11 19:14:00,
2013-09-11 15:19:00,91.5,75.7,30.01,South,190,0.0,0.0,60,0.00,,,0.16,PWS Weather Center,2013-09-11 19:19:00,
2013-09-11 15:24:00,91.6,77.7,30.01,South,173,1.0,1.0,64,0.00,,,0.16,PWS Weather Center,2013-09-11 19:24:00,
2013-09-11 15:29:00,91.4,76.1,30.01,SSE,156,0.0,5.0,61,0.00,,,0.16,PWS Weather Center,2013-09-11 19:29:00,
2013-09-11 15:34:00,90.8,75.5,30.01,SSE,153,0.0,1.0,61,0.00,,,0.16,PWS Weather Center,2013-09-11 19:34:00,
2013-09-11 15:39:00,90.6,75.8,30.00,SSE,148,0.0,0.0,62,0.00,,,0.16,PWS Weather Center,2013-09-11 19:39:00,
2013-09-11 15:44:00,90.5,75.2,30.00,SSE,157,1.0,2.0,61,0.00,,,0.16,PWS Weather Center,2013-09-11 19:44:00,
2013-09-11 15:49:00,89.9,75.1,30.00,SSE,157,1.0,7.0,62,0.00,,,0.16,PWS Weather Center,2013-09-11 19:49:00,
2013-09-11 15:54:00,89.7,75.4,30.00,South,172,0.0,2.0,63,0.00,,,0.16,PWS Weather Center,2013-09-11 19:54:00,
2013-09-11 15:59:00,90.0,76.2,30.00,ESE,112,0.0,1.0,64,0.00,,,0.16,PWS Weather Center,2013-09-11 19:59:00,
2013-09-11 16:04:00,90.0,76.2,30.00,SE,145,0.0,2.0,64,0.00,,,0.16,PWS Weather Center,2013-09-11 20:04:00,
2013-09-11 16:09:00,89.8,76.5,30.00,South,176,0.0,2.0,65,0.00,,,0.16,PWS Weather Center,2013-09-11 20:09:00,
2013-09-11 16:14:00,89.5,76.6,29.99,WSW,258,0.0,1.0,66,0.00,,,0.16,PWS Weather Center,2013-09-11 20:14:00,
2013-09-11 16:19:00,89.2,76.8,29.99,West,265,0.0,1.0,67,0.00,,,0.16,PWS Weather Center,2013-09-11 20:19:00,
2013-09-11 16:24:00,89.4,77.9,29.99,SSE,164,0.0,0.0,69,0.00,,,0.16,PWS Weather Center,2013-09-11 20:24:00,
2013-09-11 16:29:00,89.7,77.7,29.99,SSE,159,0.0,1.0,68,0.00,,,0.16,PWS Weather Center,2013-09-11 20:29:00,
2013-09-11 16:34:00,89.4,77.9,29.99,SE,139,0.0,1.0,69,0.00,,,0.16,PWS Weather Center,2013-09-11 20:34:00,
2013-09-11 16:39:00,89.0,77.9,29.99,SE,146,0.0,1.0,70,0.00,,,0.16,PWS Weather Center,2013-09-11 20:39:00,
2013-09-11 16:44:00,88.6,77.6,29.98,SE,130,0.0,6.0,70,0.00,,,0.16,PWS Weather Center,2013-09-11 20:44:00,
2013-09-11 16:49:00,88.3,77.7,29.98,SSE,151,0.0,1.0,71,0.00,,,0.16,PWS Weather Center,2013-09-11 20:49:00,
2013-09-11 16:54:00,88.2,78.0,29.98,SSE,157,0.0,7.0,72,0.00,,,0.16,PWS Weather Center,2013-09-11 20:54:00,
2013-09-11 16:59:00,88.2,78.0,29.98,South,169,0.0,1.0,72,0.00,,,0.16,PWS Weather Center,2013-09-11 20:59:00,
2013-09-11 17:04:00,87.9,77.7,29.98,South,171,0.0,1.0,72,0.00,,,0.16,PWS Weather Center,2013-09-11 21:04:00,
2013-09-11 17:09:00,87.4,77.7,29.98,SE,138,0.0,1.0,73,0.00,,,0.16,PWS Weather Center,2013-09-11 21:09:00,
2013-09-11 17:14:00,87.1,77.8,29.98,WNW,294,0.0,1.0,74,0.00,,,0.16,PWS Weather Center,2013-09-11 21:14:00,
2013-09-11 17:19:00,86.5,77.6,29.98,SE,126,1.0,5.0,75,0.00,,,0.16,PWS Weather Center,2013-09-11 21:19:00,
2013-09-11 17:24:00,86.2,77.3,29.98,SSE,148,0.0,2.0,75,0.00,,,0.16,PWS Weather Center,2013-09-11 21:24:00,
2013-09-11 17:29:00,86.0,77.6,29.98,NE,46,0.0,0.0,76,0.00,,,0.16,PWS Weather Center,2013-09-11 21:29:00,
2013-09-11 17:34:00,86.0,78.0,29.98,NNE,25,5.0,5.0,77,0.00,,,0.16,PWS Weather Center,2013-09-11 21:34:00,
2013-09-11 17:39:00,85.5,77.1,29.98,South,186,5.0,5.0,76,0.00,,,0.16,PWS Weather Center,2013-09-11 21:39:00,
2013-09-11 17:44:00,85.1,77.5,29.98,South,175,2.0,2.0,78,0.00,,,0.16,PWS Weather Center,2013-09-11 21:44:00,
2013-09-11 17:49:00,84.9,76.9,29.98,SW,215,6.0,6.0,77,0.00,,,0.16,PWS Weather Center,2013-09-11 21:49:00,
2013-09-11 17:54:00,84.5,76.9,29.97,East,99,4.0,5.0,78,0.00,,,0.16,PWS Weather Center,2013-09-11 21:54:00,
2013-09-11 17:59:00,84.3,76.7,29.97,SE,137,0.0,5.0,78,0.00,,,0.16,PWS Weather Center,2013-09-11 21:59:00,
2013-09-11 18:04:00,84.0,76.4,29.97,SSE,160,0.0,0.0,78,0.00,,,0.16,PWS Weather Center,2013-09-11 22:04:00,
2013-09-11 18:09:00,83.6,76.4,29.97,SE,137,0.0,1.0,79,0.00,,,0.16,PWS Weather Center,2013-09-11 22:09:00,
2013-09-11 18:14:00,83.2,76.0,29.97,SE,125,1.0,1.0,79,0.00,,,0.16,PWS Weather Center,2013-09-11 22:14:00,
2013-09-11 18:19:00,82.8,76.0,29.97,SW,226,0.0,2.0,80,0.00,,,0.16,PWS Weather Center,2013-09-11 22:19:00,
2013-09-11 18:24:00,82.3,75.9,29.97,SSW,198,0.0,1.0,81,0.00,,,0.16,PWS Weather Center,2013-09-11 22:24:00,
2013-09-11 18:29:00,81.9,75.9,29.97,SE,142,1.0,2.0,82,0.00,,,0.16,PWS Weather Center,2013-09-11 22:29:00,
2013-09-11 18:34:00,81.6,75.6,29.97,SSW,202,0.0,0.0,82,0.00,,,0.16,PWS Weather Center,2013-09-11 22:34:00,
2013-09-11 18:39:00,81.3,75.6,29.98,SSE,165,0.0,0.0,83,0.00,,,0.16,PWS Weather Center,2013-09-11 22:39:00,
2013-09-11 18:44:00,81.0,75.7,29.99,SSW,200,0.0,0.0,84,0.00,,,0.16,PWS Weather Center,2013-09-11 22:44:00,
2013-09-11 18:49:00,80.7,75.4,29.99,SSW,202,0.0,0.0,84,0.00,,,0.16,PWS Weather Center,2013-09-11 22:49:00,
2013-09-11 18:54:00,80.3,75.0,29.99,SSW,200,0.0,0.0,84,0.00,,,0.16,PWS Weather Center,2013-09-11 22:54:00,
2013-09-11 18:59:00,80.0,75.1,29.99,SSE,155,0.0,1.0,85,0.00,,,0.16,PWS Weather Center,2013-09-11 22:59:00,
2013-09-11 19:04:00,79.7,74.8,30.00,SSE,156,0.0,0.0,85,0.00,,,0.16,PWS Weather Center,2013-09-11 23:04:00,
2013-09-11 19:09:00,79.4,74.5,29.99,SSE,153,0.0,0.0,85,0.00,,,0.16,PWS Weather Center,2013-09-11 23:09:00,
2013-09-11 19:14:00,79.1,74.2,29.99,SSE,160,0.0,0.0,85,0.00,,,0.16,PWS Weather Center,2013-09-11 23:14:00,
2013-09-11 19:19:00,78.8,73.9,29.99,SE,135,0.0,1.0,85,0.00,,,0.16,PWS Weather Center,2013-09-11 23:19:00,
2013-09-11 19:24:00,78.7,73.8,29.99,SE,128,0.0,1.0,85,0.00,,,0.16,PWS Weather Center,2013-09-11 23:24:00,
2013-09-11 19:29:00,78.5,73.6,29.99,SSW,192,0.0,0.0,85,0.00,,,0.16,PWS Weather Center,2013-09-11 23:29:00,
2013-09-11 19:34:00,78.3,73.4,29.99,South,183,0.0,0.0,85,0.00,,,0.16,PWS Weather Center,2013-09-11 23:34:00,
2013-09-11 19:39:00,78.1,72.9,29.99,SSW,195,0.0,0.0,84,0.00,,,0.16,PWS Weather Center,2013-09-11 23:39:00,
2013-09-11 19:44:00,78.0,72.8,29.99,SSW,213,0.0,1.0,84,0.00,,,0.16,PWS Weather Center,2013-09-11 23:44:00,
2013-09-11 19:49:00,77.9,72.7,29.99,SW,219,0.0,1.0,84,0.00,,,0.16,PWS Weather Center,2013-09-11 23:49:00,
2013-09-11 19:54:00,77.8,72.2,30.00,SSW,193,0.0,1.0,83,0.00,,,0.16,PWS Weather Center,2013-09-11 23:54:00,
2013-09-11 19:59:00,77.8,71.9,30.00,SW,218,1.0,1.0,82,0.00,,,0.16,PWS Weather Center,2013-09-11 23:59:00,
2013-09-11 20:06:00,77.7,71.8,30.00,SW,221,0.0,0.0,82,0.00,,,0.16,PWS Weather Center,2013-09-12 00:06:00,
2013-09-11 20:12:00,77.6,71.3,30.00,SSW,203,0.0,3.0,81,0.00,,,0.16,PWS Weather Center,2013-09-12 00:12:00,
2013-09-11 20:17:00,77.7,71.4,30.00,South,176,0.0,1.0,81,0.00,,,0.16,PWS Weather Center,2013-09-12 00:17:00,
2013-09-11 20:22:00,77.7,71.4,30.00,South,191,0.0,1.0,81,0.00,,,0.16,PWS Weather Center,2013-09-12 00:22:00,
2013-09-11 20:27:00,77.7,71.0,30.00,North,360,0.0,5.0,80,0.00,,,0.16,PWS Weather Center,2013-09-12 00:27:00,
2013-09-11 20:32:00,77.6,70.9,30.00,SSE,159,0.0,0.0,80,0.00,,,0.16,PWS Weather Center,2013-09-12 00:32:00,
2013-09-11 20:37:00,77.6,70.9,30.00,East,97,0.0,4.0,80,0.00,,,0.16,PWS Weather Center,2013-09-12 00:37:00,
2013-09-11 20:42:00,77.6,70.9,30.00,SSE,168,4.0,6.0,80,0.00,,,0.16,PWS Weather Center,2013-09-12 00:42:00,
2013-09-11 20:47:00,77.7,71.0,30.01,South,182,0.0,0.0,80,0.00,,,0.16,PWS Weather Center,2013-09-12 00:47:00,
2013-09-11 20:52:00,77.7,71.0,30.01,SSE,167,2.0,2.0,80,0.00,,,0.16,PWS Weather Center,2013-09-12 00:52:00,
2013-09-11 20:57:00,77.7,70.7,30.01,South,183,0.0,2.0,79,0.00,,,0.16,PWS Weather Center,2013-09-12 00:57:00,
2013-09-11 21:02:00,77.7,70.7,30.01,WSW,245,7.0,9.0,79,0.00,,,0.16,PWS Weather Center,2013-09-12 01:02:00,
2013-09-11 21:07:00,77.7,70.7,30.01,ESE,110,0.0,4.0,79,0.00,,,0.16,PWS Weather Center,2013-09-12 01:07:00,
2013-09-11 21:13:00,77.6,70.6,30.01,South,183,0.0,7.0,79,0.00,,,0.16,PWS Weather Center,2013-09-12 01:13:00,
2013-09-11 21:18:00,77.5,70.5,30.01,SW,214,0.0,8.0,79,0.00,,,0.16,PWS Weather Center,2013-09-12 01:18:00,
2013-09-11 21:23:00,77.5,70.5,30.01,South,182,4.0,8.0,79,0.00,,,0.16,PWS Weather Center,2013-09-12 01:23:00,
2013-09-11 21:28:00,77.4,70.4,30.01,SSW,199,1.0,8.0,79,0.00,,,0.16,PWS Weather Center,2013-09-12 01:28:00,
2013-09-11 21:33:00,77.3,70.7,30.01,SSE,164,0.0,2.0,80,0.00,,,0.16,PWS Weather Center,2013-09-12 01:33:00,
2013-09-11 21:38:00,77.2,70.6,30.01,South,171,0.0,0.0,80,0.00,,,0.16,PWS Weather Center,2013-09-12 01:38:00,
2013-09-11 21:43:00,77.1,70.5,30.01,SSW,200,5.0,7.0,80,0.00,,,0.16,PWS Weather Center,2013-09-12 01:43:00,
2013-09-11 21:48:00,77.0,70.4,30.02,SSW,194,7.0,16.0,80,0.00,,,0.16,PWS Weather Center,2013-09-12 01:48:00,
2013-09-11 21:53:00,77.1,70.8,30.03,WSW,257,1.0,15.0,81,0.00,,,0.16,PWS Weather Center,2013-09-12 01:53:00,
2013-09-11 21:58:00,77.0,70.7,30.04,SSW,213,9.0,11.0,81,0.00,,,0.16,PWS Weather Center,2013-09-12 01:58:00,
2013-09-11 22:03:00,77.0,70.4,30.03,SW,234,2.0,11.0,80,0.00,,,0.16,PWS Weather Center,2013-09-12 02:03:00,
2013-09-11 22:08:00,77.0,70.4,30.03,West,260,7.0,11.0,80,0.00,,,0.16,PWS Weather Center,2013-09-12 02:08:00,
2013-09-11 22:13:00,76.9,69.1,30.03,SSW,204,6.0,13.0,77,0.00,,,0.16,PWS Weather Center,2013-09-12 02:13:00,
2013-09-11 22:18:00,76.7,68.6,30.03,SW,229,5.0,8.0,76,0.00,,,0.16,PWS Weather Center,2013-09-12 02:18:00,
2013-09-11 22:23:00,76.5,68.4,30.03,SSW,198,7.0,10.0,76,0.00,,,0.16,PWS Weather Center,2013-09-12 02:23:00,
2013-09-11 22:28:00,76.2,67.7,30.03,SW,231,0.0,7.0,75,0.00,,,0.16,PWS Weather Center,2013-09-12 02:28:00,
2013-09-11 22:33:00,75.9,67.8,30.03,SW,214,7.0,7.0,76,0.00,,,0.16,PWS Weather Center,2013-09-12 02:33:00,
2013-09-11 22:38:00,75.5,67.4,30.03,SSW,205,1.0,5.0,76,0.00,,,0.16,PWS Weather Center,2013-09-12 02:38:00,
2013-09-11 22:43:00,75.1,67.4,30.02,WSW,241,4.0,6.0,77,0.00,,,0.16,PWS Weather Center,2013-09-12 02:43:00,
2013-09-11 22:49:00,74.8,67.1,30.01,WSW,237,4.0,7.0,77,0.00,,,0.16,PWS Weather Center,2013-09-12 02:49:00,
2013-09-11 22:54:00,74.5,67.2,30.01,SSW,203,1.0,4.0,78,0.00,,,0.16,PWS Weather Center,2013-09-12 02:54:00,
2013-09-11 22:59:00,74.3,67.0,30.01,SW,233,2.0,2.0,78,0.00,,,0.16,PWS Weather Center,2013-09-12 02:59:00,
2013-09-11 23:04:00,74.1,67.2,30.01,SW,223,5.0,5.0,79,0.00,,,0.16,PWS Weather Center,2013-09-12 03:04:00,
2013-09-11 23:09:00,73.9,67.0,30.00,SW,230,0.0,0.0,79,0.00,,,0.16,PWS Weather Center,2013-09-12 03:09:00,
2013-09-11 23:14:00,73.6,67.1,30.00,SSE,167,0.0,0.0,80,0.00,,,0.16,PWS Weather Center,2013-09-12 03:14:00,
2013-09-11 23:19:00,73.2,67.0,30.00,SW,236,0.0,0.0,81,0.00,,,0.16,PWS Weather Center,2013-09-12 03:19:00,
2013-09-11 23:24:00,72.8,67.0,29.99,SW,227,0.0,0.0,82,0.00,,,0.16,PWS Weather Center,2013-09-12 03:24:00,
2013-09-11 23:29:00,72.5,67.0,29.99,SW,227,0.0,0.0,83,0.00,,,0.16,PWS Weather Center,2013-09-12 03:29:00,
2013-09-11 23:34:00,72.1,67.0,29.98,WSW,237,0.0,0.0,84,0.00,,,0.16,PWS Weather Center,2013-09-12 03:34:00,
2013-09-11 23:39:00,71.7,66.6,29.99,SW,232,0.0,0.0,84,0.00,,,0.16,PWS Weather Center,2013-09-12 03:39:00,
2013-09-11 23:44:00,71.5,66.8,29.98,SW,221,0.0,0.0,85,0.00,,,0.16,PWS Weather Center,2013-09-12 03:44:00,
2013-09-11 23:49:00,71.3,66.9,29.98,SSE,168,0.0,0.0,86,0.00,,,0.16,PWS Weather Center,2013-09-12 03:49:00,
2013-09-11 23:54:00,71.0,66.6,29.97,WSW,237,0.0,0.0,86,0.00,,,0.16,PWS Weather Center,2013-09-12 03:54:00,
2013-09-11 23:59:00,70.8,66.4,29.97,SW,227,0.0,0.0,86,0.00,,,0.16,PWS Weather Center,2013-09-12 03:59:00,